This is the latest recevied weather packets stored in our database for station/object KF4CQ. If no packets are shown the sender has not sent any weather packets the latest 10 day(s).
| Time | Temp. | Humidity | Pressure | Rain* | Wind** | Luminosity | Snow |
|---|---|---|---|---|---|---|---|
| 1778086367 | 32.22° C | 51% | 1018 hPa | 0 mm | - | 749 W/m² | - |
| 1778086064 | 32.22° C | 52% | 1018.1 hPa | 0 mm | - | 769 W/m² | - |
| 1778085761 | 31.67° C | 52% | 1018.2 hPa | 0 mm | - | 777 W/m² | - |
| 1778085458 | 31.67° C | 52% | 1018.4 hPa | 0 mm | - | 748 W/m² | - |
| 1778085152 | 31.67° C | 53% | 1018.2 hPa | 0 mm | - | 735 W/m² | - |
| 1778084849 | 31.67° C | 53% | 1018.1 hPa | 0 mm | - | 743 W/m² | - |
| 1778084547 | 31.67° C | 54% | 1018.3 hPa | 0 mm | - | 706 W/m² | - |
| 1778084244 | 31.11° C | 53% | 1018.5 hPa | 0 mm | - | 687 W/m² | - |
| 1778083941 | 31.67° C | 54% | 1018.2 hPa | 0 mm | - | 660 W/m² | - |
| 1778083639 | 31.67° C | 53% | 1018.6 hPa | 0 mm | - | 724 W/m² | - |
| 1778083335 | 31.11° C | 55% | 1018.7 hPa | 0 mm | - | 665 W/m² | - |
| 1778083033 | 31.11° C | 54% | 1018.7 hPa | 0 mm | - | 601 W/m² | - |
| 1778082730 | 30.56° C | 55% | 1018.6 hPa | 0 mm | - | 638 W/m² | - |
| 1778081598 | 30° C | 59% | 1018.7 hPa | 0 mm | - | 607 W/m² | - |
| 1778081295 | 30° C | 59% | 1018.9 hPa | 0 mm | - | 536 W/m² | - |
| 1778080992 | 29.44° C | 60% | 1018.8 hPa | 0 mm | - | 562 W/m² | - |
| 1778080691 | 30° C | 60% | 1018.7 hPa | 0 mm | - | 513 W/m² | - |
| 1778080387 | 30° C | 56% | 1018.8 hPa | 0 mm | - | 532 W/m² | - |
| 1778080084 | 29.44° C | 60% | 1018.7 hPa | 0 mm | - | 536 W/m² | - |
| 1778079781 | 28.89° C | 61% | 1018.9 hPa | 0 mm | - | 501 W/m² | - |
| 1778079478 | 28.89° C | 61% | 1018.6 hPa | 0 mm | - | 463 W/m² | - |
| 1778079174 | 28.89° C | 65% | 1018.5 hPa | 0 mm | - | 457 W/m² | - |
| 1778078872 | 28.89° C | 66% | 1018.4 hPa | 0 mm | - | 522 W/m² | - |
| 1778078568 | 28.89° C | 65% | 1018.5 hPa | 0 mm | - | 366 W/m² | - |
| 1778078266 | 28.89° C | 68% | 1018.4 hPa | 0 mm | - | 372 W/m² | - |
* Rain latest hour (hover to see other rain measurements)
** Current wind speed in m/s (hover to see current wind gust speed)